This is the latest recevied weather packets stored in our database for station/object WB5CFT. If no packets are shown the sender has not sent any weather packets the latest 10 day(s).
| Time | Temp. | Humidity | Pressure | Rain* | Wind** | Luminosity | Snow |
|---|---|---|---|---|---|---|---|
| 1777837639 | 22.22° C | 43% | 1019.3 hPa | 0 mm | - | 579 W/m² | - |
| 1777837335 | 22.22° C | 43% | 1019.4 hPa | 0 mm | - | 660 W/m² | - |
| 1777837031 | 22.22° C | 43% | 1019.5 hPa | 0 mm | - | 633 W/m² | - |
| 1777836727 | 22.78° C | 42% | 1019.4 hPa | 0 mm | - | 687 W/m² | - |
| 1777836423 | 21.67° C | 43% | 1019.4 hPa | 0 mm | - | 743 W/m² | - |
| 1777836118 | 21.67° C | 44% | 1019.6 hPa | 0 mm | - | 832 W/m² | - |
| 1777835815 | 21.67° C | 44% | 1019.8 hPa | 0 mm | - | 627 W/m² | - |
| 1777835512 | 21.67° C | 44% | 1020 hPa | 0 mm | - | 602 W/m² | - |
| 1777835209 | 21.67° C | 44% | 1020.1 hPa | 0 mm | - | 746 W/m² | - |
| 1777834906 | 21.67° C | 44% | 1020.2 hPa | 0 mm | - | 635 W/m² | - |
| 1777834603 | 21.67° C | 44% | 1020.3 hPa | 0 mm | - | 687 W/m² | - |
| 1777834298 | 21.67° C | 44% | 1020.6 hPa | 0 mm | - | 647 W/m² | - |
| 1777833993 | 21.11° C | 45% | 1020.5 hPa | 0 mm | - | 590 W/m² | - |
| 1777833690 | 20.56° C | 47% | 1020.6 hPa | 0 mm | - | 547 W/m² | - |
| 1777833386 | 20.56° C | 47% | 1020.8 hPa | 0 mm | - | 429 W/m² | - |
| 1777833084 | 20.56° C | 47% | 1020.9 hPa | 0 mm | - | 588 W/m² | - |
| 1777832782 | 20.56° C | 46% | 1020.8 hPa | 0 mm | - | 570 W/m² | - |
| 1777832480 | 20.56° C | 47% | 1021.2 hPa | 0 mm | - | 600 W/m² | - |
| 1777832176 | 20.56° C | 47% | 1020.9 hPa | 0 mm | - | 517 W/m² | - |
| 1777831873 | 20.56° C | 48% | 1021.1 hPa | 0 mm | - | 590 W/m² | - |
| 1777831570 | 20° C | 50% | 1021.1 hPa | 0 mm | - | 501 W/m² | - |
| 1777831269 | 20° C | 50% | 1021.3 hPa | 0 mm | - | 586 W/m² | - |
| 1777830965 | 20° C | 49% | 1021.5 hPa | 0 mm | - | 616 W/m² | - |
| 1777830662 | 20° C | 51% | 1021.5 hPa | 0 mm | - | 530 W/m² | - |
| 1777830359 | 20° C | 52% | 1021.7 hPa | 0 mm | - | 391 W/m² | - |
* Rain latest hour (hover to see other rain measurements)
** Current wind speed in m/s (hover to see current wind gust speed)